You are listening to:
LHBP Info - Budapest, Hungary

LHBP 181030Z 09006KT 030V110 9999 FEW032 BKN040 11/02 Q1016 NOSIG

If stream doesn't start automatically press the play button
If stream stops then reload player then press play